Fort Eustis, VA

11:47 PM EST on November 21, 2019 (GMT -0500)
Felker Army Air Field

Weather History for KFAF - September, 2019

Change the Weather History Date:

Wednesday, September 4, 2019

  Actual Average Record
Temperature  
Mean Temperature 80 °F -  
Max Temperature 89 °F 81 °F 93 °F (2002)
Min Temperature 72 °F 67 °F 57 °F (1997)
Cooling Degree Days 15    
Growing Degree Days 30 (Base 50)    
Moisture  
Dew Point 72 °F    
Average Humidity 78    
Maximum Humidity 90    
Minimum Humidity 52    
Precipitation  
Precipitation 0.00 in - - ()
Sea Level Pressure  
Sea Level Pressure 29.98 in    
Wind  
Wind Speed 3 mph ()    
Max Wind Speed 10 mph    
Max Gust Speed -    
Visibility 10.0 miles    
Events      
Averages and records for this station are not official NWS values.
T = Trace of Precipitation, MM = Missing Value Source: Averaged Metar Reports

Daily Weather History Graph

Daily Weather History Graph

Search for Another Location

Airport or City:

Astronomy

Sep. 04, 2019 Rise Set
Actual Time 6:39 AM EDT 7:31 PM EDT
Civil Twilight 6:12 AM EDT 7:57 PM EDT
Nautical Twilight 5:41 AM EDT 8:28 PM EDT
Astronomical Twilight 5:09 AM EDT 9:00 PM EDT
Moon 12:30 PM EDT (9/4) 11:12 PM EDT (9/4)
Length of Visible Light 13h 44m
Length of Day
12h 51m
Waxing Crescent, 34% of the Moon is Illuminated
Sep 4
Waxing Crescent
Sep 5
First Quarter
Sep 14
Full
Sep 21
Last Quarter
Sep 28
New

Hourly Weather History & Observations

Time (EDT) Temp. Heat Index Dew Point Humidity Pressure Visibility Wind Dir Wind Speed Gust Speed Precip Events Conditions
12:56 AM 72.9 °F - 69.1 °F 88% 30.00 in 10.0 mi Calm Calm - N/A   Clear
1:56 AM 72.5 °F - 69.4 °F 90% 30.00 in 10.0 mi Calm Calm - N/A   Clear
2:56 AM 72.7 °F - 69.6 °F 90% 29.98 in 10.0 mi Calm Calm - N/A   Clear
3:56 AM 74.7 °F - 71.4 °F 90% 29.98 in 10.0 mi South 4.6 mph - N/A   Clear
4:56 AM 74.1 °F - 70.9 °F 90% 29.99 in 10.0 mi South 3.5 mph - N/A   Clear
5:56 AM 74.3 °F - 71.1 °F 90% 30.01 in 10.0 mi Calm Calm - N/A   Clear
6:56 AM 73.9 °F - 70.7 °F 90% 30.03 in 10.0 mi Calm Calm - N/A   Clear
7:56 AM 75.6 °F - 72.0 °F 89% 30.03 in 10.0 mi South 5.8 mph - N/A   Partly Cloudy
8:27 AM 75.2 °F - 71.6 °F 89% 30.03 in 10.0 mi SSW 3.5 mph - N/A   Mostly Cloudy
8:56 AM 75.9 °F - 72.3 °F 89% 30.04 in 10.0 mi West 3.5 mph - N/A   Mostly Cloudy
9:06 AM 77.0 °F - 73.4 °F 89% 30.04 in 10.0 mi SSW 4.6 mph - N/A   Mostly Cloudy
9:56 AM 77.2 °F - 73.2 °F 88% 30.02 in 10.0 mi South 8.1 mph - N/A   Scattered Clouds
10:56 AM 80.4 °F 85.0 °F 73.2 °F 79% 30.02 in 10.0 mi SW 4.6 mph - N/A   Scattered Clouds
11:56 AM 84.2 °F 89.3 °F 71.1 °F 65% 30.00 in 10.0 mi South 3.5 mph - N/A   Scattered Clouds
12:56 PM 87.1 °F 92.4 °F 70.5 °F 58% 29.98 in 10.0 mi Calm Calm - N/A   Scattered Clouds
1:56 PM 88.2 °F 92.9 °F 69.8 °F 54% 29.96 in 10.0 mi WSW 5.8 mph - N/A   Scattered Clouds
2:56 PM 88.9 °F 93.4 °F 69.4 °F 52% 29.95 in 10.0 mi South 8.1 mph - N/A   Mostly Cloudy
3:56 PM 88.3 °F 93.2 °F 70.0 °F 54% 29.95 in 10.0 mi South 10.4 mph - N/A   Mostly Cloudy
4:56 PM 86.9 °F 92.5 °F 71.2 °F 59% 29.94 in 10.0 mi South 8.1 mph - N/A   Mostly Cloudy
5:56 PM 85.5 °F 91.1 °F 71.4 °F 63% 29.94 in 10.0 mi South 6.9 mph - N/A   Mostly Cloudy
6:56 PM 83.8 °F 89.8 °F 72.9 °F 69% 29.94 in 10.0 mi South 3.5 mph - N/A   Mostly Cloudy
7:56 PM 81.3 °F 86.5 °F 73.4 °F 77% 29.94 in 10.0 mi Calm Calm - N/A   Mostly Cloudy
8:56 PM 79.3 °F - 73.6 °F 82% 29.95 in 10.0 mi Calm Calm - N/A   Mostly Cloudy
9:56 PM 80.8 °F 85.9 °F 73.9 °F 80% 29.95 in 10.0 mi South 3.5 mph - N/A   Mostly Cloudy
10:54 PM 80.4 °F 85.3 °F 73.9 °F 81% 29.94 in 10.0 mi South 5.8 mph - N/A   Mostly Cloudy
11:56 PM 79.9 °F - 74.1 °F 82% 29.94 in 10.0 mi South 5.8 mph - N/A   Clear